STARLINK-32449, 61670

Orbit data source: Space-Track

STARLINK-32449, 61670 is a payload satellite owned by SpaceX/Seattle (US) in LEO that was launched on Sat, 26 Oct 2024 UTC via an FALCON 9 launch vehicle from the Air Force Eastern Test Range (AFETR). Payload-class satellites include a variety of spacecraft equipped with specific instruments for various scientific and technological missions. These include communications satellites like Starlink; space stations such as the ISS; scientific satellites like the Hubble; Earth observation satellites from companies like Planet Labs, Umbra, and HawkEye 360; GPS; miniature CubeSats for education and research; and military/defense satellites.

Loading next visibility...
Identifier
61670, 2024-193K
Orbit
LEO
Last TLE update
21 hours ago
Origin
Manufacturer
SpaceX/Seattle
Mission
Operational Commercial Communications
Bus & Motor
STARLINK V2M, Unknown motor
Mass
730 kg wet, ~700 kg dry
Launch date (UTC)
2024-10-26 (8 months ago)
Launch vehicle
FALCON 9
Launch site
Air Force Eastern Test Range (AFETR)
Object type
Payload
Rocket body
Debris
Shape & HBR
Box + 2 Pan, 29 m
Radar Cross Section
36.964 m², Large (>1 m²)

Expand to show TLE details & history

TLE from 21 hours ago
0 STARLINK-32449
1 61670U 24193K   25181.49361920  .00000590  00000-0  32050-4 0  9998
2 61670  53.1588 182.4798 0001016  87.0027 273.1090 15.30195306 37918
Epoch: 2025-06-30T11:50Z
TLE epoch observation values (Epoch: 2025-06-30T11:50:48.698Z)
Latitude
-0.00004°
Longitude
85.97423°
Altitude
476.091 km
Speed
7.629 km/s
True Right ascension
12h 09m 55s
True Declination
0° 00' 00"
Sunlit
Object was in daylight at epoch
Visualization orbit readout
Latitude
51.8322°
Longitude
-169.48342°
Altitude
480.781 km
Speed
7.632 km/s
Apparent Right ascension
12h 03m 43s
Apparent Declination
40° 15' 07"
Sunlit
Object is in daylight
Visualization observer readout
Local Sidereal Time
20:18:06
Azimuth
320.331° NNW
Elevation
5.204°
Doppler factor
1
Orbital elements
Apogee altitude
476.182 km
Perigee altitude
474.789 km
Semi-major axis
6,853.623 km
Eccentricity
0.0001
Inclination
53.1588°
RAAN
182.4798°
Arg. of periapsis
87.0027°
True anomaly
Unknown
Mean anomaly
273.109°
Eccentric anomaly
Unknown
Mean motion
3.82528 °/min
Orbital period
94.11 mins
BSTAR
0.00003205
Loading maneuver chart data...
Loading SW <> Apogee altitude chart data...
Loading historical data...
Loading historical data...
Loading historical data...
Loading historical data...
Loading historical data...
Loading historical data...
Loading historical data...

STARLINK-32449 Visibility forecast

Observer location: undefined°, undefined°

Span
Click to sort rows by Start time (UTC) header in descending order
Start Az.
Max El. time (UTC)
Max El. Az.
Max El.
End time (UTC)
End Az.
5 mins2025-07-01 08:41:57.365Z335.299° NNW2025-07-01 08:43:57.365Z19.396° NNE26.957°2025-07-01 08:46:57.365Z89.671° E
5 mins2025-07-01 10:19:57.365Z283.496° WNW2025-07-01 10:21:57.365Z236.182° WSW28.909°2025-07-01 10:24:57.365Z165.818° S
5 mins2025-07-02 01:37:57.365Z178.028° S2025-07-02 01:39:57.365Z133.096° SE23.973°2025-07-02 01:42:57.365Z74.227° E
5 mins2025-07-02 03:15:57.365Z272.563° WNW2025-07-02 03:17:57.365Z332.992° NNW31.136°2025-07-02 03:20:57.365Z34.943° NE
4 mins2025-07-02 08:12:57.365Z344.456° N2025-07-02 08:14:57.365Z35.789° NE25.008°2025-07-02 08:16:57.365Z80.086° E
|